Location: Gwatt
(46.7204°N, 7.6223°E)
Time: 02:38:22
(UTC+00:00)

Cosmos 2082 Rocket - Pass Details

Date: 18 September 2020
Orbit: 834 x 853 km, 71.0° (Epoch: 29 October)

Event Time Altitude Azimuth Distance (km) Brightness Sun altitude
Rises 18:55:56 0° 340° (NNW) 3,392 5.9 -14.5°
Reaches altitude 10° 19:01:12 10° 22° (NNE) 2,455 4.6 -15.4°
Maximum altitude 19:02:02 10° 31° (NNE) 2,433 4.5 -15.5°
Drops below altitude 10° 19:02:52 10° 39° (NE) 2,454 4.4 -15.6°
Enters shadow 19:04:42 - 57° (ENE) 2,642 4.4 -15.9°
